Tracking 30116 objects as of 10-Feb-2025
HD Live streaming from Space Station
objects crossing your sky now

PEGASUS DEB

Track PEGASUS DEB now!
10-day predictions


NORAD ID: 24581
Int'l Code: 1994-029YH
Perigee: 571.6 km
Apogee: 1,697.2 km
Inclination: 81.5 °
Period: 107.9 minutes
Semi major axis: 7505 km
RCS: 0.0163 m2 (small)
Launch date: May 19, 1994
Source: United States (US)
Launch site: AIR FORCE WESTERN TEST RANGE (AFWTR)

Note: This is SATELLITE DEBRIS
Your satellite tracking list
Your tracking list is empty




NASA's NSSDC Master Catalog

Two Line Element Set (TLE):
1 24581U 94029YH  25040.56793545  .00005942  00000-0  22381-2 0  9997
2 24581  81.5438  67.7845 0749857 210.0957 285.7514 13.35181646370024
Source of the keplerian elements: AFSPC